Regional Weather Roundup
Issued by NWS Green Bay, WI

Home | Current Version | Previous Version | Graphics & Text | Print | Product List | Glossary Off
Versions: 1 2 3 4 5 6 7 8 9 10 11 12 13 14 15 16 17 18 19 20 21 22 23 24 25 26 27 28 29 30 31 32 33 34 35 36 37 38 39 40 41 42 43 44 45 46 47 48 49 50

000
ASUS43 KGRB 230211
RWRGRB

NORTH-CENTRAL AND NORTHEAST WISCONSIN REGIONAL WEATHER ROUNDUP
NATIONAL WEATHER SERVICE GREEN BAY WI
800 PM CST WED NOV 22 2017

WIZ005-009-010>012-018-019-230300-
NORTH CENTRAL WISCONSIN

CITY           SKY/WX    TMP DP  RH WIND       PRES   REMARKS
IRONWOOD       CLOUDY    22  14  71 SW8       30.03S
MANITOWISH WTR CLOUDY    21  13  71 SW7       30.02R
ARBOR VITAE    PTCLDY    23  15  71 SW6       30.02S
EAGLE RIVER    CLOUDY    23  13  64 SW8       30.01S
LAND O LAKES   CLOUDY    23  13  65 SW6       30.02F
RHINELANDER    MOCLDY    23  14  68 SW7       30.03F
PHILLIPS       CLOUDY    21  17  84 S5        30.03S
ANTIGO         PTCLDY    22  14  70 S6        30.05F
TOMAHAWK       CLOUDY    22  14  71 CALM      30.05S
MERRILL        CLOUDY    24  15  66 SW9       30.06F
$$

WIZ013-073-230300-
NORTHEAST WISCONSIN

CITY           SKY/WX    TMP DP  RH WIND       PRES   REMARKS
IRON MOUNTAIN  PTCLDY    26  12  55 S5        30.04F
MARINETTE      CLOUDY    28  16  60 SW8       30.12
OCONTO         CLOUDY    28  15  58 SW5       30.12F
$$

WIZ017-030-035>037-045-230300-
CENTRAL WISCONSIN

CITY           SKY/WX    TMP DP  RH WIND       PRES   REMARKS
MEDFORD        LGT SNOW  22  16  78 S8        30.04S
WAUSAU         CLOUDY    25  14  63 SW10      30.06F
MOSINEE        CLOUDY    25  16  68 SW8       30.08F
MARSHFIELD     CLOUDY    26  12  55 S8        30.06F
WISC RAPIDS    CLOUDY    28  15  58 S6        30.11F
STEVENS POINT  CLOUDY    26  13  59 SW9       30.10F
WAUPACA        CLOUDY    31  15  51 SW5       30.12F
SHAWANO        CLOUDY    30  15  54 CALM      30.10F
CLINTONVILLE   CLOUDY    28  14  54 SW5       30.11F
WAUTOMA        CLOUDY    28  16  60 S6        30.13
$$

WIZ038-039-048-051-230300-
FOX VALLEY

CITY           SKY/WX    TMP DP  RH WIND       PRES   REMARKS
NWS GREEN BAY  CLOUDY    30  18  60 SW7       30.12F
APPLETON       CLOUDY    28  12  50 SW9       30.11F
OSHKOSH        CLOUDY    29  18  63 S8        30.12F
FOND DU LAC    CLOUDY    30  16  56 S8        30.14F
$$

WIZ022-050-052-230300-
EAST CENTRAL WISCONSIN

CITY           SKY/WX    TMP DP  RH WIND       PRES   REMARKS
EPHRAIM        CLOUDY    27  16  63 S6        30.10F
WASHINGTON ISL CLOUDY    28  17  65 S9        30.10F
STURGEON BAY   CLOUDY    28  18  66 SW7       30.13F
MANITOWOC      CLOUDY    29  18  63 S8        30.14F
SHEBOYGAN      CLOUDY    30  18  60 SW12      30.14F
$$

LMZ563-521-522-541>543-230300-
LAKESHORE

STATION/POSITION TIME  TEMP    WIND        PRES    VSBY  WAVE
                       AIR SEA DIR/SP/G                  HT/PER
                 (UTC) (F)     (DEG/KT/KT) (MB)    (MI)  (FT/S)
SHEBOYGAN LKSHOR 0200   31     200/ 12/ 13 1021.7F
KEWAUNEE LKSHORE 0148   29     210/  5/  9 1019.6F
NORTHPORT PIER   0156   28     190/  4/ 11 1019.6F
N MID LAKE BUOY  0150   33 47  230/ 17/ 21 1021.0F         3/ 4
SISTER BAY LKSHO 0120          190/ 10/ 13   N/A
MENOMINEE LKSHOR 0148   29     210/  9/ 15 1019.5F
$$




USA.gov is the U.S. government's official web portal to all federal, state and local government web resources and services.